Location: Newark
(34.9500°N, 139.9667°E)
Time: 07:50:11
(UTC+00:00)

Transit 4A - Visible Passes

Search period start: 06 December 2019 00:00
Search period end: 16 December 2019 00:00
Orbit: 870 x 975 km, 66.8° (Epoch: 05 December)

Date Brightness Start Highest point End Pass type
(mag) Time Alt. Az. Time Alt. Az. Time Alt. Az.
06 Dec 9.3 09:08:34 10° WSW 09:14:13 36° WNW 09:19:47 10° N visible
07 Dec 9.8 09:18:49 10° WSW 09:23:46 24° NW 09:28:40 10° N visible
08 Dec 10.2 09:29:33 10° W 09:33:25 17° NW 09:37:15 10° N visible
09 Dec 8.3 07:49:33 10° SW 07:55:46 69° WNW 08:01:51 10° NNE visible
09 Dec 10.4 09:41:17 10° WNW 09:43:10 11° NW 09:45:04 10° NNW visible
10 Dec 8.9 07:59:13 10° SW 08:05:10 46° WNW 08:11:01 10° NNE visible
11 Dec 9.5 08:09:14 10° WSW 08:14:40 31° NW 08:20:00 10° N visible
12 Dec 10.0 08:19:39 10° W 08:24:15 21° NW 08:28:47 10° N visible
13 Dec 10.2 08:30:38 10° W 08:33:56 15° NW 08:37:12 10° NNW visible
